#timestamp,LO_Frequency,Hit,StdDev 
1701558015.2,286046998.9,N
1701558035.1,286046998.8,N
1701558036.0,286046998.8,N
1701558055.8,286046998.7,N
1701558075.7,286046998.4,N
1701558095.5,286046998.2,N
1701558115.3,286046999.2,N
1701558135.2,286046996.7,Y
1701558155.0,286046999.0,P
1701558155.9,286046999.0,P
1701558175.8,286046999.3,P
1701558195.6,286046996.5,Y
1701558215.4,286047000.7,P
1701558235.3,286046998.6,N
1701558255.1,286046999.1,N
1701558275.8,286046998.9,N
1701558295.7,286046998.5,N
1701558315.5,286047001.0,N
1701558335.4,286046998.1,N
1701558355.2,286047000.8,N
1701558375.0,286046998.2,N
1701558375.9,286046998.2,N
1701558395.8,286046999.3,N
1701558415.6,286046996.5,Y
1701558435.4,286047001.1,P
1701558455.3,286047001.1,N
1701558475.1,286047000.5,N
1701558495.9,286046999.8,N
1701558515.7,286047000.6,N
1701558535.5,286046999.8,N
1701558555.4,286047000.9,N
1701558575.2,286047000.7,N
1701558595.0,286047000.7,N
1701558595.9,286047000.7,N
1701558615.8,286046999.9,N
1701558635.6,286047000.0,N
1701558655.5,286047000.0,N
1701558675.3,286047002.2,Y
1701558695.1,286047000.7,P
1701558715.9,286047001.1,P
1701558735.7,286047000.0,N
1701558755.6,286047000.7,N
1701558775.4,286046998.8,Y
1701558795.2,286046997.2,P
1701558815.1,286046998.9,N
1701558816.0,286046998.9,N
1701558835.8,286046998.5,N
1701558855.6,286046998.5,N
1701558875.5,286047000.5,N
1701558895.3,286047000.3,N
1701558915.2,286046998.6,N
1701558935.9,286047000.7,N
1701558955.7,286047000.8,N
1701558975.6,286046999.5,N
1701558995.4,286046999.0,N
1701559015.2,286046996.9,N
1701559035.1,286046998.4,N
1701559036.0,286046998.4,N
1701559055.8,286047001.1,N
1701559075.7,286047001.2,N
1701559095.5,286047000.9,N
1701559115.3,286046999.7,N
1701559135.2,286047001.0,N
1701559155.0,286047000.6,N
1701559155.9,286047000.6,N
1701559175.7,286047002.8,N
1701559195.6,286047002.5,N
1701559215.4,286047000.2,N
1701559235.3,286046999.9,N
1701559255.1,286047000.5,N
1701559256.0,286047000.5,N
1701559275.8,286047000.2,N
1701559295.7,286047001.6,N
1701559315.5,286047001.9,N
1701559335.4,286047002.0,N
1701559355.2,286047002.7,N
1701559375.0,286047002.3,N
1701559375.9,286047002.3,N
1701559395.8,286046999.7,N
1701559415.6,286047002.2,N
1701559435.4,286047000.2,N
1701559455.3,286047000.0,N
1701559475.1,286047002.4,N
1701559495.9,286047002.4,N
1701559515.7,286047002.6,N
1701559535.5,286047004.0,N
1701559555.4,286047002.0,N
1701559575.2,286047001.9,N
1701559595.0,286047002.8,N
1701559595.9,286047002.8,N
1701559615.8,286047000.9,N
1701559635.6,286046997.0,N
1701559655.4,286046996.5,N
1701559675.3,286046999.3,N
1701559695.1,286046998.5,N
1701559715.9,286046998.7,N
1701559735.7,286047002.4,N
1701559755.5,286047000.9,N
1701559775.4,286047002.7,N
1701559795.2,286047000.2,N
1701559815.0,286047000.0,N
1701559815.9,286047000.0,N
1701559835.8,286046998.1,N
1701559855.6,286047000.7,N
1701559875.5,286047000.7,N
1701559895.3,286047000.2,N
1701559915.1,286047000.2,N
1701559935.9,286047000.3,N
1701559955.7,286047000.0,N
1701559975.5,286047000.3,N
1701559995.4,286047000.9,N
1701560015.2,286047002.3,N
1701560035.1,286046999.8,N
1701560036.0,286046999.8,N
1701560055.8,286047002.2,N
1701560075.6,286047002.5,N
1701560095.5,286047001.7,N
1701560115.3,286047002.8,N
1701560135.2,286047002.5,N
1701560155.9,286047002.5,N
1701560175.7,286047001.8,N
1701560195.6,286047002.6,N
1701560215.4,286046999.8,N
1701560235.2,286047000.3,N
1701560255.1,286047002.8,N
1701560256.0,286047002.8,N
1701560275.8,286046999.7,N
1701560295.7,286047001.5,N
1701560315.5,286047002.0,N
1701560335.3,286047004.1,Y
1701560355.2,286047001.4,P
1701560375.0,286047002.2,P
1701560375.9,286047002.2,P
1701560395.8,286047001.9,Y
1701560415.6,286047002.7,P
1701560435.4,286047001.1,N
1701560455.3,286047000.4,N
1701560475.1,286046998.3,N
1701560495.8,286046998.4,N
1701560515.7,286046996.8,N
1701560535.5,286046997.6,N
1701560555.4,286046996.6,N
1701560575.2,286046999.3,N
1701560595.0,286046999.5,N
1701560595.9,286046999.5,N
1701560615.8,286046996.7,N
1701560635.6,286046996.8,N
1701560655.5,286046999.1,N
1701560675.3,286046999.2,N
1701560695.1,286046996.9,N
1701560715.9,286046999.5,N
1701560735.7,286046999.0,N
1701560755.5,286046999.4,N
1701560775.4,286046998.5,N
1701560795.2,286046998.7,N
1701560815.1,286046998.6,N
1701560816.0,286046998.6,N
1701560835.8,286046998.8,N
1701560855.6,286046997.8,N
1701560875.5,286046997.5,N
1701560895.3,286046997.5,N
1701560915.2,286046996.9,N
1701560935.9,286046999.2,N
1701560955.7,286046998.7,N
1701560975.6,286046998.6,N
1701560995.4,286047000.8,N
1701561015.2,286046998.1,N
1701561035.1,286046998.3,N
1701561036.0,286046998.3,N
1701561055.8,286046996.5,Y
1701561075.7,286046998.2,P
1701561095.5,286046998.3,P
1701561115.3,286046998.3,P
1701561135.2,286046997.8,Y
1701561155.0,286046998.7,P
1701561155.9,286046998.7,P
1701561175.8,286047000.5,N
1701561195.6,286046999.7,N
1701561215.4,286047002.3,N
1701561235.3,286047002.2,N
1701561255.1,286047002.3,N
1701561275.9,286047002.5,N
1701561295.7,286047001.6,N
1701561315.5,286047000.2,N
1701561335.4,286047002.6,N
1701561355.2,286047002.5,N
1701561375.0,286047002.1,N
1701561375.9,286047002.1,N
1701561395.8,286047002.6,N
1701561415.6,286047001.7,N
1701561435.5,286047001.7,N
1701561455.3,286047001.8,N
1701561475.1,286047003.6,N
1701561495.9,286047004.2,N
1701561515.7,286047004.0,N
1701561535.5,286047003.1,N
1701561555.4,286047004.3,N
1701561575.2,286047001.8,N
1701561595.1,286047003.6,N
1701561596.0,286047003.6,N
